Paso Robles, CA

10:01 PM PDT on September 24, 2017 (GMT -0700)
Paso Robles Municipal

Weather History for KPRB - March, 2014

Change the Weather History Date:

Saturday, March 8, 2014

  Actual Average Record
Temperature  
Mean Temperature 59 °F 53 °F  
Max Temperature 77 °F 65 °F 84 °F (2004)
Min Temperature 40 °F 40 °F 22 °F (1964)
Degree Days  
Heating Degree Days 6 12  
Month to date heating degree days 57 102  
Since 1 July heating degree days 1762 2195  
Cooling Degree Days 0 0  
Month to date cooling degree days 0 0  
Year to date cooling degree days 0 0  
Growing Degree Days 9 (Base 50)    
Moisture  
Dew Point 43 °F    
Average Humidity 58    
Maximum Humidity 96    
Minimum Humidity 19    
Precipitation  
Precipitation 0.00 in 0.10 in 0.69 in (1986)
Month to date precipitation 0.77 0.78  
Year to date precipitation 3.43 6.12  
Since 1 July precipitation 3.89  
Sea Level Pressure  
Sea Level Pressure 30.14 in    
Wind  
Wind Speed 4 mph (SE)    
Max Wind Speed 13 mph    
Max Gust Speed 17 mph    
Visibility 10 miles    
Events      
T = Trace of Precipitation, MM = Missing Value Source: NWS Daily Summary

Daily Weather History Graph

Daily Weather History Graph

Search for Another Location

Airport or City:

Trip Planner

Search our weather history database for the weather conditions in past years. The results will help you decide how hot, cold, wet, or windy it might be!

Date:

Astronomy

Mar. 08, 2014 Rise Set
Actual Time 6:22 AM PST 6:04 PM PST
Civil Twilight 5:57 AM PST 6:29 PM PST
Nautical Twilight 5:27 AM PST 6:59 PM PST
Astronomical Twilight 4:58 AM PST 7:28 PM PST
Moon 11:20 AM PST (3/8) 12:54 AM PST (3/8)
Length of Visible Light 12h 32m
Length of Day
11h 41m
First Quarter, 53% of the Moon is Illuminated
Mar 8
First Quarter
Mar 16
Full
Mar 23
Last Quarter
Mar 30
New
Apr 7
First Quarter

Hourly Weather History & Observations

Time (PST) Temp. Windchill Dew Point Humidity Pressure Visibility Wind Dir Wind Speed Gust Speed Precip Events Conditions
12:53 AM 46.0 °F 43.9 °F 41.0 °F 83% 30.11 in 10.0 mi NNE 4.6 mph - N/A   Clear
1:53 AM 45.0 °F - 41.0 °F 86% 30.12 in 10.0 mi Calm Calm - N/A   Clear
2:53 AM 43.0 °F 39.5 °F 41.0 °F 93% 30.11 in 10.0 mi SE 5.8 mph - N/A   Clear
3:53 AM 42.1 °F 39.2 °F 39.9 °F 92% 30.11 in 10.0 mi East 4.6 mph - N/A   Clear
4:53 AM 42.1 °F 40.2 °F 39.0 °F 89% 30.12 in 10.0 mi East 3.5 mph - N/A   Clear
5:53 AM 41.0 °F - 39.0 °F 93% 30.14 in 10.0 mi Calm Calm - N/A   Clear
6:53 AM 41.0 °F 37.1 °F 39.0 °F 93% 30.16 in 10.0 mi NE 5.8 mph - N/A   Clear
7:53 AM 46.9 °F - 42.1 °F 83% 30.16 in 10.0 mi Calm Calm - N/A   Clear
8:53 AM 52.0 °F - 45.0 °F 77% 30.17 in 10.0 mi Calm Calm - N/A   Clear
9:53 AM 57.0 °F - 46.0 °F 67% 30.17 in 10.0 mi West 3.5 mph - N/A   Clear
10:53 AM 63.0 °F - 46.0 °F 54% 30.16 in 10.0 mi Variable 3.5 mph - N/A   Clear
11:53 AM 66.9 °F - 46.0 °F 47% 30.16 in 10.0 mi Calm Calm - N/A   Clear
12:53 PM 72.0 °F - 46.9 °F 41% 30.13 in 10.0 mi ESE 5.8 mph - N/A   Clear
1:53 PM 75.0 °F - 44.1 °F 33% 30.11 in 10.0 mi ESE 8.1 mph - N/A   Clear
2:53 PM 75.9 °F - 41.0 °F 29% 30.10 in 10.0 mi South 3.5 mph - N/A   Clear
3:53 PM 77.0 °F - 32.0 °F 19% 30.10 in 10.0 mi SW 8.1 mph 16.1 mph N/A   Clear
4:53 PM 75.0 °F - 30.0 °F 19% 30.11 in 10.0 mi SW 8.1 mph - N/A   Clear
5:53 PM 66.9 °F - 48.0 °F 51% 30.13 in 10.0 mi East 8.1 mph - N/A   Clear
6:53 PM 64.9 °F - 44.1 °F 47% 30.15 in 10.0 mi SSE 4.6 mph - N/A   Clear
7:53 PM 59.0 °F - 46.9 °F 64% 30.17 in 10.0 mi ESE 8.1 mph - N/A   Clear
8:53 PM 57.0 °F - 46.0 °F 67% 30.18 in 10.0 mi SSE 5.8 mph - N/A   Clear
9:53 PM 55.0 °F - 45.0 °F 69% 30.18 in 10.0 mi Calm Calm - N/A   Clear
10:53 PM 53.1 °F - 46.0 °F 77% 30.19 in 10.0 mi NNE 3.5 mph - N/A   Clear
11:53 PM 52.0 °F - 45.0 °F 77% 30.19 in 10.0 mi Calm Calm - N/A   Clear